contact:dominique.lefevre@mio.osupytheas.fr, maurice.libes@osupytheas.fr, didier.mallarino@osupytheas.fr
Project:EMSO http://www.emso-fr.org/EMSO-France
Depth: 2436.0 m
Title:EMSO Ligure Ouest : Data MII capteur MICROCAT
DateTime_Computer,Latitude,Longitude,Temperature,Conductivity,Pressure,DateTime_Instrument
DateTime_Computer,Latitude,Longitude,degC,S m-1,dbar,DateTime_Instrument
2023-03-24T00:02:17Z,42.805,6.029,13.3015,4.60076,2470.6,2023-3-24T02:05:02Z
2023-03-24T00:05:20Z,42.805,6.029,13.3012,4.60074,2470.614,2023-3-24T02:08:05Z
2023-03-24T00:08:23Z,42.805,6.029,13.3013,4.60074,2470.6,2023-3-24T02:11:08Z
2023-03-24T00:11:26Z,42.805,6.029,13.3015,4.60074,2470.591,2023-3-24T02:14:11Z
2023-03-24T00:14:30Z,42.805,6.029,13.3015,4.60074,2470.553,2023-3-24T02:17:14Z
2023-03-24T00:17:33Z,42.805,6.029,13.3017,4.60075,2470.6,2023-3-24T02:20:17Z
2023-03-24T00:20:36Z,42.805,6.029,13.3012,4.60074,2470.553,2023-3-24T02:23:20Z
2023-03-24T00:23:39Z,42.805,6.029,13.3015,4.60074,2470.591,2023-3-24T02:26:23Z
2023-03-24T00:26:42Z,42.805,6.029,13.3014,4.60074,2470.577,2023-3-24T02:29:26Z
2023-03-24T00:29:45Z,42.805,6.029,13.3018,4.60074,2470.553,2023-3-24T02:32:29Z
2023-03-24T00:32:48Z,42.805,6.029,13.3014,4.60075,2470.6,2023-3-24T02:35:32Z
2023-03-24T00:35:51Z,42.805,6.029,13.3011,4.60076,2470.591,2023-3-24T02:38:35Z
2023-03-24T00:38:54Z,42.805,6.029,13.3014,4.60074,2470.6,2023-3-24T02:41:39Z
2023-03-24T00:41:57Z,42.805,6.029,13.3013,4.60074,2470.553,2023-3-24T02:44:42Z
2023-03-24T00:45:00Z,42.805,6.029,13.3014,4.60075,2470.544,2023-3-24T02:47:45Z
2023-03-24T00:48:03Z,42.805,6.029,13.3012,4.60074,2470.567,2023-3-24T02:50:48Z
2023-03-24T00:51:07Z,42.805,6.029,13.3014,4.60075,2470.544,2023-3-24T02:53:51Z
2023-03-24T00:54:10Z,42.805,6.029,13.3011,4.60076,2470.567,2023-3-24T02:56:54Z
2023-03-24T00:57:13Z,42.805,6.029,13.3014,4.60075,2470.53,2023-3-24T02:59:57Z
2023-03-24T01:00:16Z,42.805,6.029,13.3018,4.60075,2470.6,2023-3-24T03:03:00Z
2023-03-24T01:03:19Z,42.805,6.029,13.3015,4.60074,2470.516,2023-3-24T03:06:03Z
2023-03-24T01:06:22Z,42.805,6.029,13.3015,4.60074,2470.567,2023-3-24T03:09:06Z
2023-03-24T01:09:25Z,42.805,6.029,13.3015,4.60074,2470.553,2023-3-24T03:12:09Z
2023-03-24T01:12:28Z,42.805,6.029,13.3015,4.60075,2470.577,2023-3-24T03:15:12Z
2023-03-24T01:15:31Z,42.805,6.029,13.3014,4.60074,2470.553,2023-3-24T03:18:16Z
2023-03-24T01:18:34Z,42.805,6.029,13.3017,4.60074,2470.53,2023-3-24T03:21:19Z
2023-03-24T01:21:37Z,42.805,6.029,13.3013,4.60074,2470.507,2023-3-24T03:24:22Z
2023-03-24T01:24:40Z,42.805,6.029,13.3013,4.60075,2470.553,2023-3-24T03:27:25Z
2023-03-24T01:27:43Z,42.805,6.029,13.3014,4.60074,2470.507,2023-3-24T03:30:28Z
2023-03-24T01:30:47Z,42.805,6.029,13.3015,4.60074,2470.553,2023-3-24T03:33:31Z
2023-03-24T01:33:50Z,42.805,6.029,13.3015,4.60076,2470.53,2023-3-24T03:36:34Z
2023-03-24T01:36:53Z,42.805,6.029,13.3015,4.60074,2470.544,2023-3-24T03:39:37Z
2023-03-24T01:39:56Z,42.805,6.029,13.3012,4.60074,2470.553,2023-3-24T03:42:40Z
2023-03-24T01:42:59Z,42.805,6.029,13.3018,4.60074,2470.544,2023-3-24T03:45:43Z
2023-03-24T01:46:02Z,42.805,6.029,13.3009,4.60074,2470.544,2023-3-24T03:48:46Z
2023-03-24T01:49:05Z,42.805,6.029,13.3011,4.60074,2470.53,2023-3-24T03:51:49Z
2023-03-24T01:52:08Z,42.805,6.029,13.3014,4.60075,2470.544,2023-3-24T03:54:52Z
2023-03-24T01:55:11Z,42.805,6.029,13.3016,4.60074,2470.53,2023-3-24T03:57:56Z
2023-03-24T01:58:14Z,42.805,6.029,13.3018,4.60075,2470.497,2023-3-24T04:00:59Z
2023-03-24T02:01:17Z,42.805,6.029,13.3014,4.60074,2470.53,2023-3-24T04:04:02Z
2023-03-24T02:04:20Z,42.805,6.029,13.3015,4.60074,2470.544,2023-3-24T04:07:05Z
2023-03-24T02:07:24Z,42.805,6.029,13.3013,4.60075,2470.507,2023-3-24T04:10:08Z
2023-03-24T02:10:27Z,42.805,6.029,13.3019,4.60076,2470.483,2023-3-24T04:13:11Z
2023-03-24T02:13:30Z,42.805,6.029,13.3009,4.60075,2470.507,2023-3-24T04:16:14Z
2023-03-24T02:16:33Z,42.805,6.029,13.3018,4.60075,2470.483,2023-3-24T04:19:17Z
2023-03-24T02:19:36Z,42.805,6.029,13.3013,4.60074,2470.53,2023-3-24T04:22:20Z
2023-03-24T02:22:39Z,42.805,6.029,13.3011,4.60074,2470.52,2023-3-24T04:25:23Z
2023-03-24T02:25:42Z,42.805,6.029,13.3012,4.60075,2470.53,2023-3-24T04:28:26Z
2023-03-24T02:28:45Z,42.805,6.029,13.3015,4.60076,2470.497,2023-3-24T04:31:29Z
2023-03-24T02:31:48Z,42.805,6.029,13.3013,4.60074,2470.507,2023-3-24T04:34:33Z
2023-03-24T02:34:51Z,42.805,6.029,13.3015,4.60076,2470.507,2023-3-24T04:37:36Z
2023-03-24T02:37:54Z,42.805,6.029,13.3012,4.60075,2470.53,2023-3-24T04:40:39Z
2023-03-24T02:40:57Z,42.805,6.029,13.3011,4.60074,2470.483,2023-3-24T04:43:42Z
2023-03-24T02:44:00Z,42.805,6.029,13.3013,4.60075,2470.53,2023-3-24T04:46:45Z
2023-03-24T02:47:04Z,42.805,6.029,13.3016,4.60074,2470.483,2023-3-24T04:49:48Z
2023-03-24T02:50:07Z,42.805,6.029,13.3016,4.60075,2470.483,2023-3-24T04:52:51Z
2023-03-24T02:53:10Z,42.805,6.029,13.3015,4.60074,2470.483,2023-3-24T04:55:54Z
2023-03-24T02:56:13Z,42.805,6.029,13.3016,4.60075,2470.507,2023-3-24T04:58:57Z
2023-03-24T02:59:16Z,42.805,6.029,13.3014,4.60074,2470.52,2023-3-24T05:02:00Z
2023-03-24T03:02:19Z,42.805,6.029,13.3015,4.60075,2470.483,2023-3-24T05:05:03Z
2023-03-24T03:05:22Z,42.805,6.029,13.3012,4.60075,2470.53,2023-3-24T05:08:06Z
2023-03-24T03:08:25Z,42.805,6.029,13.3014,4.60075,2470.507,2023-3-24T05:11:09Z
2023-03-24T03:11:28Z,42.805,6.029,13.3018,4.60075,2470.483,2023-3-24T05:14:13Z
2023-03-24T03:14:31Z,42.805,6.029,13.3018,4.60075,2470.507,2023-3-24T05:17:16Z
2023-03-24T03:17:34Z,42.805,6.029,13.3018,4.60075,2470.507,2023-3-24T05:20:19Z
2023-03-24T03:20:37Z,42.805,6.029,13.3013,4.60075,2470.507,2023-3-24T05:23:22Z
2023-03-24T03:23:40Z,42.805,6.029,13.3013,4.60076,2470.52,2023-3-24T05:26:25Z
2023-03-24T03:26:44Z,42.805,6.029,13.3014,4.60076,2470.507,2023-3-24T05:29:28Z
2023-03-24T03:29:47Z,42.805,6.029,13.3015,4.60076,2470.507,2023-3-24T05:32:31Z
2023-03-24T03:32:50Z,42.805,6.029,13.3015,4.60076,2470.483,2023-3-24T05:35:34Z
2023-03-24T03:35:53Z,42.805,6.029,13.3017,4.60075,2470.507,2023-3-24T05:38:37Z
2023-03-24T03:38:56Z,42.805,6.029,13.3019,4.60075,2470.483,2023-3-24T05:41:40Z
2023-03-24T03:41:59Z,42.805,6.029,13.3018,4.60076,2470.507,2023-3-24T05:44:43Z
2023-03-24T03:45:02Z,42.805,6.029,13.3012,4.60075,2470.507,2023-3-24T05:47:46Z
2023-03-24T03:48:05Z,42.805,6.029,13.3012,4.60077,2470.507,2023-3-24T05:50:50Z
2023-03-24T03:51:08Z,42.805,6.029,13.3018,4.60075,2470.507,2023-3-24T05:53:53Z
2023-03-24T03:54:11Z,42.805,6.029,13.3014,4.60075,2470.47,2023-3-24T05:56:56Z
2023-03-24T03:57:14Z,42.805,6.029,13.3016,4.60076,2470.507,2023-3-24T05:59:59Z
2023-03-24T04:00:17Z,42.805,6.029,13.3018,4.60076,2470.507,2023-3-24T06:03:02Z
2023-03-24T04:03:21Z,42.805,6.029,13.3017,4.60076,2470.483,2023-3-24T06:06:05Z
2023-03-24T04:06:24Z,42.805,6.029,13.3012,4.60075,2470.507,2023-3-24T06:09:08Z
2023-03-24T04:09:27Z,42.805,6.029,13.3014,4.60076,2470.507,2023-3-24T06:12:11Z
2023-03-24T04:12:30Z,42.805,6.029,13.3015,4.60076,2470.507,2023-3-24T06:15:14Z
2023-03-24T04:15:33Z,42.805,6.029,13.3018,4.60076,2470.483,2023-3-24T06:18:17Z
2023-03-24T04:18:36Z,42.805,6.029,13.3016,4.60077,2470.52,2023-3-24T06:21:20Z
2023-03-24T04:21:39Z,42.805,6.029,13.3013,4.60075,2470.52,2023-3-24T06:24:23Z
2023-03-24T04:24:42Z,42.805,6.029,13.3017,4.60075,2470.507,2023-3-24T06:27:27Z
2023-03-24T04:27:45Z,42.805,6.029,13.3013,4.60075,2470.544,2023-3-24T06:30:30Z
2023-03-24T04:30:48Z,42.805,6.029,13.3013,4.60075,2470.507,2023-3-24T06:33:33Z
2023-03-24T04:33:51Z,42.805,6.029,13.3015,4.60076,2470.493,2023-3-24T06:36:36Z
2023-03-24T04:36:54Z,42.805,6.029,13.3016,4.60076,2470.507,2023-3-24T06:39:39Z
2023-03-24T04:39:57Z,42.805,6.029,13.3015,4.60075,2470.53,2023-3-24T06:42:42Z
2023-03-24T04:43:01Z,42.805,6.029,13.3014,4.60076,2470.507,2023-3-24T06:45:45Z
2023-03-24T04:46:04Z,42.805,6.029,13.3014,4.60075,2470.544,2023-3-24T06:48:48Z
2023-03-24T04:49:07Z,42.805,6.029,13.3014,4.60076,2470.544,2023-3-24T06:51:51Z
2023-03-24T04:52:10Z,42.805,6.029,13.3014,4.60074,2470.53,2023-3-24T06:54:54Z
2023-03-24T04:55:13Z,42.805,6.029,13.3017,4.60075,2470.553,2023-3-24T06:57:57Z
2023-03-24T04:58:16Z,42.805,6.029,13.3014,4.60075,2470.53,2023-3-24T07:01:00Z
2023-03-24T05:01:19Z,42.805,6.029,13.3015,4.60075,2470.544,2023-3-24T07:04:03Z
2023-03-24T05:04:22Z,42.805,6.029,13.3015,4.60076,2470.544,2023-3-24T07:07:07Z
2023-03-24T05:07:25Z,42.805,6.029,13.3012,4.60075,2470.591,2023-3-24T07:10:10Z
2023-03-24T05:10:28Z,42.805,6.029,13.3012,4.60075,2470.553,2023-3-24T07:13:13Z
2023-03-24T05:13:31Z,42.805,6.029,13.3011,4.60076,2470.553,2023-3-24T07:16:16Z
2023-03-24T05:16:34Z,42.805,6.029,13.3015,4.60076,2470.553,2023-3-24T07:19:19Z
2023-03-24T05:19:38Z,42.805,6.029,13.3019,4.60076,2470.591,2023-3-24T07:22:22Z
2023-03-24T05:22:41Z,42.805,6.029,13.3016,4.60076,2470.563,2023-3-24T07:25:25Z
2023-03-24T05:25:44Z,42.805,6.029,13.3015,4.60075,2470.577,2023-3-24T07:28:28Z
2023-03-24T05:28:47Z,42.805,6.029,13.3016,4.60076,2470.6,2023-3-24T07:31:31Z
2023-03-24T05:31:50Z,42.805,6.029,13.3014,4.60076,2470.614,2023-3-24T07:34:35Z
2023-03-24T05:34:53Z,42.805,6.029,13.3013,4.60076,2470.591,2023-3-24T07:37:38Z
2023-03-24T05:37:56Z,42.805,6.029,13.3019,4.60075,2470.591,2023-3-24T07:40:41Z
2023-03-24T05:40:59Z,42.805,6.029,13.3014,4.60077,2470.6,2023-3-24T07:43:44Z
2023-03-24T05:44:02Z,42.805,6.029,13.3017,4.60076,2470.6,2023-3-24T07:46:47Z
2023-03-24T05:47:06Z,42.805,6.029,13.3015,4.60075,2470.6,2023-3-24T07:49:50Z
2023-03-24T05:50:09Z,42.805,6.029,13.3016,4.60076,2470.563,2023-3-24T07:52:53Z
2023-03-24T05:53:12Z,42.805,6.029,13.3014,4.60074,2470.6,2023-3-24T07:55:56Z
2023-03-24T05:56:15Z,42.805,6.029,13.3014,4.60077,2470.577,2023-3-24T07:58:59Z
2023-03-24T05:59:18Z,42.805,6.029,13.3016,4.60075,2470.577,2023-3-24T08:02:02Z
2023-03-24T06:02:21Z,42.805,6.029,13.3016,4.60075,2470.624,2023-3-24T08:05:05Z
2023-03-24T06:05:24Z,42.805,6.029,13.3016,4.60076,2470.614,2023-3-24T08:08:08Z
2023-03-24T06:08:27Z,42.805,6.029,13.3015,4.60077,2470.646,2023-3-24T08:11:12Z
2023-03-24T06:11:30Z,42.805,6.029,13.3016,4.60076,2470.646,2023-3-24T08:14:15Z
2023-03-24T06:14:33Z,42.805,6.029,13.3017,4.60077,2470.624,2023-3-24T08:17:18Z
2023-03-24T06:17:36Z,42.805,6.029,13.3018,4.60076,2470.646,2023-3-24T08:20:21Z
2023-03-24T06:20:39Z,42.805,6.029,13.3014,4.60077,2470.646,2023-3-24T08:23:24Z
2023-03-24T06:23:42Z,42.805,6.029,13.3014,4.60077,2470.646,2023-3-24T08:26:27Z
2023-03-24T06:26:46Z,42.805,6.029,13.3015,4.60076,2470.646,2023-3-24T08:29:30Z
2023-03-24T06:29:49Z,42.805,6.029,13.3014,4.60076,2470.61,2023-3-24T08:32:33Z
2023-03-24T06:32:52Z,42.805,6.029,13.3017,4.60076,2470.707,2023-3-24T08:35:36Z
2023-03-24T06:35:55Z,42.805,6.029,13.3015,4.60077,2470.67,2023-3-24T08:38:39Z
2023-03-24T06:38:58Z,42.805,6.029,13.3014,4.60078,2470.67,2023-3-24T08:41:42Z
2023-03-24T06:42:01Z,42.805,6.029,13.3014,4.60076,2470.67,2023-3-24T08:44:45Z
2023-03-24T06:45:04Z,42.805,6.029,13.3015,4.60076,2470.707,2023-3-24T08:47:48Z
2023-03-24T06:48:07Z,42.805,6.029,13.3019,4.60076,2470.67,2023-3-24T08:50:52Z
2023-03-24T06:51:10Z,42.805,6.029,13.3010,4.60077,2470.717,2023-3-24T08:53:55Z
2023-03-24T06:54:13Z,42.805,6.029,13.3015,4.60076,2470.707,2023-3-24T08:56:58Z
2023-03-24T06:57:16Z,42.805,6.029,13.3014,4.60079,2470.67,2023-3-24T09:00:01Z
2023-03-24T07:00:19Z,42.805,6.029,13.3012,4.60079,2470.73,2023-3-24T09:03:04Z
2023-03-24T07:03:22Z,42.805,6.029,13.3014,4.60076,2470.693,2023-3-24T09:06:07Z
2023-03-24T07:06:26Z,42.805,6.029,13.3013,4.60077,2470.73,2023-3-24T09:09:10Z
2023-03-24T07:09:29Z,42.805,6.029,13.3018,4.60076,2470.717,2023-3-24T09:12:13Z
2023-03-24T07:12:32Z,42.805,6.029,13.3017,4.60077,2470.717,2023-3-24T09:15:16Z
2023-03-24T07:15:35Z,42.805,6.029,13.3016,4.60077,2470.73,2023-3-24T09:18:19Z
2023-03-24T07:18:38Z,42.805,6.029,13.3013,4.60077,2470.73,2023-3-24T09:21:22Z
2023-03-24T07:21:41Z,42.805,6.029,13.3017,4.60077,2470.73,2023-3-24T09:24:25Z
2023-03-24T07:24:44Z,42.805,6.029,13.3019,4.60077,2470.754,2023-3-24T09:27:29Z
2023-03-24T07:27:47Z,42.805,6.029,13.3017,4.60078,2470.717,2023-3-24T09:30:32Z
2023-03-24T07:30:50Z,42.805,6.029,13.3014,4.60077,2470.74,2023-3-24T09:33:35Z
2023-03-24T07:33:53Z,42.805,6.029,13.3015,4.60077,2470.717,2023-3-24T09:36:38Z
2023-03-24T07:36:56Z,42.805,6.029,13.3015,4.60078,2470.703,2023-3-24T09:39:41Z
2023-03-24T07:39:59Z,42.805,6.029,13.3015,4.60077,2470.74,2023-3-24T09:42:44Z
2023-03-24T07:43:03Z,42.805,6.029,13.3015,4.60077,2470.754,2023-3-24T09:45:47Z
2023-03-24T07:46:06Z,42.805,6.029,13.3012,4.60077,2470.717,2023-3-24T09:48:50Z
2023-03-24T07:49:09Z,42.805,6.029,13.3016,4.60077,2470.73,2023-3-24T09:51:53Z
2023-03-24T07:52:12Z,42.805,6.029,13.3015,4.60077,2470.74,2023-3-24T09:54:56Z
2023-03-24T07:55:15Z,42.805,6.029,13.3018,4.60077,2470.754,2023-3-24T09:57:59Z
2023-03-24T07:58:18Z,42.805,6.029,13.3018,4.60077,2470.763,2023-3-24T10:01:02Z
2023-03-24T08:01:21Z,42.805,6.029,13.3014,4.60078,2470.777,2023-3-24T10:04:06Z
2023-03-24T08:04:24Z,42.805,6.029,13.3019,4.60077,2470.763,2023-3-24T10:07:09Z
2023-03-24T08:07:27Z,42.805,6.029,13.3014,4.60079,2470.74,2023-3-24T10:10:12Z
2023-03-24T08:10:30Z,42.805,6.029,13.3015,4.60077,2470.777,2023-3-24T10:13:15Z
2023-03-24T08:13:33Z,42.805,6.029,13.3017,4.60077,2470.754,2023-3-24T10:16:18Z
2023-03-24T08:16:36Z,42.805,6.029,13.3012,4.60077,2470.74,2023-3-24T10:19:21Z
2023-03-24T08:19:39Z,42.805,6.029,13.3018,4.60078,2470.8,2023-3-24T10:22:24Z
2023-03-24T08:22:43Z,42.805,6.029,13.3018,4.60077,2470.74,2023-3-24T10:25:27Z
2023-03-24T08:25:46Z,42.805,6.029,13.3014,4.60078,2470.763,2023-3-24T10:28:30Z
2023-03-24T08:28:49Z,42.805,6.029,13.3016,4.60077,2470.717,2023-3-24T10:31:33Z
2023-03-24T08:31:52Z,42.805,6.029,13.3015,4.60077,2470.74,2023-3-24T10:34:36Z
2023-03-24T08:34:55Z,42.805,6.029,13.3014,4.60077,2470.754,2023-3-24T10:37:39Z
2023-03-24T08:37:58Z,42.805,6.029,13.3015,4.60077,2470.777,2023-3-24T10:40:43Z
2023-03-24T08:41:01Z,42.805,6.029,13.3017,4.60077,2470.8,2023-3-24T10:43:46Z
2023-03-24T08:44:04Z,42.805,6.029,13.3016,4.60078,2470.763,2023-3-24T10:46:49Z
2023-03-24T08:47:07Z,42.805,6.029,13.3015,4.60077,2470.763,2023-3-24T10:49:52Z
2023-03-24T08:50:10Z,42.805,6.029,13.3016,4.60077,2470.8,2023-3-24T10:52:55Z
2023-03-24T08:53:13Z,42.805,6.029,13.3012,4.60077,2470.8,2023-3-24T10:55:58Z
2023-03-24T08:56:17Z,42.805,6.029,13.3014,4.60078,2470.74,2023-3-24T10:59:01Z
2023-03-24T08:59:20Z,42.805,6.029,13.3011,4.60078,2470.763,2023-3-24T11:02:04Z
2023-03-24T09:02:23Z,42.805,6.029,13.3014,4.60077,2470.74,2023-3-24T11:05:07Z
2023-03-24T09:05:26Z,42.805,6.029,13.3016,4.60077,2470.8,2023-3-24T11:08:10Z
2023-03-24T09:08:29Z,42.805,6.029,13.3018,4.60077,2470.8,2023-3-24T11:11:13Z
2023-03-24T09:11:32Z,42.805,6.029,13.3016,4.60078,2470.754,2023-3-24T11:14:16Z
2023-03-24T09:14:35Z,42.805,6.029,13.3013,4.60077,2470.763,2023-3-24T11:17:20Z
2023-03-24T09:17:38Z,42.805,6.029,13.3013,4.60077,2470.763,2023-3-24T11:20:23Z
2023-03-24T09:20:41Z,42.805,6.029,13.3015,4.60077,2470.824,2023-3-24T11:23:26Z
2023-03-24T09:23:44Z,42.805,6.029,13.3016,4.60077,2470.763,2023-3-24T11:26:29Z
2023-03-24T09:26:47Z,42.805,6.029,13.3013,4.60079,2470.74,2023-3-24T11:29:32Z
2023-03-24T09:29:50Z,42.805,6.029,13.3015,4.60079,2470.763,2023-3-24T11:32:35Z
2023-03-24T09:32:54Z,42.805,6.029,13.3015,4.60079,2470.75,2023-3-24T11:35:38Z
2023-03-24T09:35:57Z,42.805,6.029,13.3014,4.60077,2470.763,2023-3-24T11:38:41Z
2023-03-24T09:39:00Z,42.805,6.029,13.3015,4.60077,2470.763,2023-3-24T11:41:44Z
2023-03-24T09:42:03Z,42.805,6.029,13.3018,4.60078,2470.777,2023-3-24T11:44:47Z
2023-03-24T09:45:06Z,42.805,6.029,13.3017,4.60079,2470.726,2023-3-24T11:47:50Z
2023-03-24T09:48:09Z,42.805,6.029,13.3014,4.60077,2470.754,2023-3-24T11:50:54Z
2023-03-24T09:51:12Z,42.805,6.029,13.3013,4.60079,2470.763,2023-3-24T11:53:57Z
2023-03-24T09:54:15Z,42.805,6.029,13.3013,4.60078,2470.726,2023-3-24T11:57:00Z
2023-03-24T09:57:18Z,42.805,6.029,13.3015,4.60078,2470.763,2023-3-24T12:00:03Z
2023-03-24T10:00:21Z,42.805,6.029,13.3016,4.60077,2470.74,2023-3-24T12:03:06Z
2023-03-24T10:03:24Z,42.805,6.029,13.3011,4.60078,2470.754,2023-3-24T12:06:09Z
2023-03-24T10:06:27Z,42.805,6.029,13.3013,4.60077,2470.754,2023-3-24T12:09:12Z
2023-03-24T10:09:31Z,42.805,6.029,13.3017,4.60079,2470.777,2023-3-24T12:12:15Z
2023-03-24T10:12:34Z,42.805,6.029,13.3017,4.60077,2470.754,2023-3-24T12:15:18Z
2023-03-24T10:15:37Z,42.805,6.029,13.3015,4.60078,2470.763,2023-3-24T12:18:21Z
2023-03-24T10:18:40Z,42.805,6.029,13.3017,4.60079,2470.74,2023-3-24T12:21:24Z
2023-03-24T10:21:43Z,42.805,6.029,13.3015,4.60077,2470.74,2023-3-24T12:24:27Z
2023-03-24T10:24:46Z,42.805,6.029,13.3017,4.60077,2470.74,2023-3-24T12:27:31Z
2023-03-24T10:27:49Z,42.805,6.029,13.3016,4.60077,2470.754,2023-3-24T12:30:34Z
2023-03-24T10:30:52Z,42.805,6.029,13.3017,4.60078,2470.74,2023-3-24T12:33:37Z
2023-03-24T10:33:55Z,42.805,6.029,13.3016,4.60078,2470.74,2023-3-24T12:36:40Z
2023-03-24T10:36:58Z,42.805,6.029,13.3015,4.60079,2470.717,2023-3-24T12:39:43Z
2023-03-24T10:40:01Z,42.805,6.029,13.3015,4.60077,2470.717,2023-3-24T12:42:46Z
2023-03-24T10:43:04Z,42.805,6.029,13.3016,4.60078,2470.73,2023-3-24T12:45:49Z
2023-03-24T10:46:08Z,42.805,6.029,13.3014,4.60077,2470.73,2023-3-24T12:48:52Z
2023-03-24T10:49:11Z,42.805,6.029,13.3013,4.60077,2470.707,2023-3-24T12:51:55Z
2023-03-24T10:52:14Z,42.805,6.029,13.3019,4.60077,2470.73,2023-3-24T12:54:58Z
2023-03-24T10:55:17Z,42.805,6.029,13.3014,4.60078,2470.703,2023-3-24T12:58:01Z
2023-03-24T10:58:20Z,42.805,6.029,13.3018,4.60077,2470.693,2023-3-24T13:01:05Z
2023-03-24T11:01:23Z,42.805,6.029,13.3014,4.60079,2470.693,2023-3-24T13:04:08Z
2023-03-24T11:04:26Z,42.805,6.029,13.3017,4.60077,2470.67,2023-3-24T13:07:11Z
2023-03-24T11:07:29Z,42.805,6.029,13.3011,4.60078,2470.717,2023-3-24T13:10:14Z
2023-03-24T11:10:32Z,42.805,6.029,13.3014,4.60076,2470.693,2023-3-24T13:13:17Z
2023-03-24T11:13:35Z,42.805,6.029,13.3017,4.60078,2470.693,2023-3-24T13:16:20Z
2023-03-24T11:16:38Z,42.805,6.029,13.3017,4.60079,2470.693,2023-3-24T13:19:23Z
2023-03-24T11:19:42Z,42.805,6.029,13.3015,4.60077,2470.717,2023-3-24T13:22:26Z
2023-03-24T11:22:45Z,42.805,6.029,13.3014,4.60077,2470.693,2023-3-24T13:25:29Z
2023-03-24T11:25:48Z,42.805,6.029,13.3014,4.60077,2470.707,2023-3-24T13:28:32Z
2023-03-24T11:28:51Z,42.805,6.029,13.3017,4.60077,2470.707,2023-3-24T13:31:35Z
2023-03-24T11:31:54Z,42.805,6.029,13.3015,4.60078,2470.646,2023-3-24T13:34:38Z
2023-03-24T11:34:57Z,42.805,6.029,13.3017,4.60079,2470.684,2023-3-24T13:37:42Z
2023-03-24T11:38:00Z,42.805,6.029,13.3017,4.60077,2470.693,2023-3-24T13:40:45Z
2023-03-24T11:41:03Z,42.805,6.029,13.3015,4.60078,2470.67,2023-3-24T13:43:48Z
2023-03-24T11:44:06Z,42.805,6.029,13.3016,4.60077,2470.67,2023-3-24T13:46:51Z
2023-03-24T11:47:09Z,42.805,6.029,13.3018,4.60077,2470.717,2023-3-24T13:49:54Z
2023-03-24T11:50:12Z,42.805,6.029,13.3015,4.60078,2470.693,2023-3-24T13:52:57Z
2023-03-24T11:53:15Z,42.805,6.029,13.3015,4.60077,2470.67,2023-3-24T13:56:00Z
2023-03-24T11:56:19Z,42.805,6.029,13.3015,4.60077,2470.693,2023-3-24T13:59:03Z
2023-03-24T11:59:22Z,42.805,6.029,13.3015,4.60077,2470.646,2023-3-24T14:02:06Z
2023-03-24T12:02:25Z,42.805,6.029,13.3014,4.60077,2470.67,2023-3-24T14:05:09Z
2023-03-24T12:05:28Z,42.805,6.029,13.3013,4.60077,2470.646,2023-3-24T14:08:12Z
2023-03-24T12:08:31Z,42.805,6.029,13.3017,4.60077,2470.661,2023-3-24T14:11:15Z
2023-03-24T12:11:34Z,42.805,6.029,13.3016,4.60077,2470.67,2023-3-24T14:14:19Z
2023-03-24T12:14:37Z,42.805,6.029,13.3013,4.60078,2470.684,2023-3-24T14:17:22Z
2023-03-24T12:17:40Z,42.805,6.029,13.3016,4.60077,2470.661,2023-3-24T14:20:25Z
2023-03-24T12:20:43Z,42.805,6.029,13.3012,4.60077,2470.679,2023-3-24T14:23:28Z
2023-03-24T12:23:46Z,42.805,6.029,13.3013,4.60077,2470.661,2023-3-24T14:26:31Z
2023-03-24T12:26:49Z,42.805,6.029,13.3014,4.60077,2470.67,2023-3-24T14:29:34Z
2023-03-24T12:29:52Z,42.805,6.029,13.3014,4.60077,2470.646,2023-3-24T14:32:37Z
2023-03-24T12:32:56Z,42.805,6.029,13.3017,4.60077,2470.646,2023-3-24T14:35:40Z
2023-03-24T12:35:59Z,42.805,6.029,13.3015,4.60077,2470.67,2023-3-24T14:38:43Z
2023-03-24T12:39:02Z,42.805,6.029,13.3018,4.60077,2470.661,2023-3-24T14:41:46Z
2023-03-24T12:42:05Z,42.805,6.029,13.3015,4.60078,2470.624,2023-3-24T14:44:49Z
2023-03-24T12:45:08Z,42.805,6.029,13.3015,4.60077,2470.661,2023-3-24T14:47:52Z
2023-03-24T12:48:11Z,42.805,6.029,13.3018,4.60077,2470.624,2023-3-24T14:50:56Z
2023-03-24T12:51:14Z,42.805,6.029,13.3018,4.60077,2470.624,2023-3-24T14:53:59Z
2023-03-24T12:54:17Z,42.805,6.029,13.3017,4.60077,2470.661,2023-3-24T14:57:02Z
2023-03-24T12:57:20Z,42.805,6.029,13.3013,4.60077,2470.646,2023-3-24T15:00:05Z
2023-03-24T13:00:23Z,42.805,6.029,13.3015,4.60077,2470.646,2023-3-24T15:03:08Z
2023-03-24T13:03:26Z,42.805,6.029,13.3015,4.60077,2470.637,2023-3-24T15:06:11Z
2023-03-24T13:06:29Z,42.805,6.029,13.3017,4.60077,2470.637,2023-3-24T15:09:14Z
2023-03-24T13:09:33Z,42.805,6.029,13.3016,4.60077,2470.6,2023-3-24T15:12:17Z
2023-03-24T13:12:36Z,42.805,6.029,13.3015,4.60077,2470.624,2023-3-24T15:15:20Z
2023-03-24T13:15:39Z,42.805,6.029,13.3013,4.60077,2470.6,2023-3-24T15:18:23Z
2023-03-24T13:18:42Z,42.805,6.029,13.3016,4.60077,2470.6,2023-3-24T15:21:26Z
2023-03-24T13:21:45Z,42.805,6.029,13.3016,4.60077,2470.577,2023-3-24T15:24:30Z
2023-03-24T13:24:48Z,42.805,6.029,13.3016,4.60077,2470.624,2023-3-24T15:27:33Z
2023-03-24T13:27:51Z,42.805,6.029,13.3017,4.60076,2470.6,2023-3-24T15:30:36Z
2023-03-24T13:30:54Z,42.805,6.029,13.3016,4.60076,2470.591,2023-3-24T15:33:39Z
2023-03-24T13:33:57Z,42.805,6.029,13.3011,4.60076,2470.624,2023-3-24T15:36:42Z
2023-03-24T13:37:00Z,42.805,6.029,13.3015,4.60076,2470.624,2023-3-24T15:39:45Z
2023-03-24T13:40:03Z,42.805,6.029,13.3015,4.60077,2470.591,2023-3-24T15:42:48Z
2023-03-24T13:43:07Z,42.805,6.029,13.3019,4.60077,2470.577,2023-3-24T15:45:51Z
2023-03-24T13:46:10Z,42.805,6.029,13.3017,4.60077,2470.553,2023-3-24T15:48:54Z
2023-03-24T13:49:13Z,42.805,6.029,13.3014,4.60075,2470.614,2023-3-24T15:51:57Z
2023-03-24T13:52:16Z,42.805,6.029,13.3016,4.60077,2470.6,2023-3-24T15:55:00Z
2023-03-24T13:55:19Z,42.805,6.029,13.3013,4.60076,2470.6,2023-3-24T15:58:04Z
2023-03-24T13:58:22Z,42.805,6.029,13.3016,4.60076,2470.6,2023-3-24T16:01:07Z
2023-03-24T14:01:25Z,42.805,6.029,13.3016,4.60076,2470.577,2023-3-24T16:04:10Z
2023-03-24T14:04:28Z,42.805,6.029,13.3020,4.60076,2470.591,2023-3-24T16:07:13Z
2023-03-24T14:07:31Z,42.805,6.029,13.3015,4.60076,2470.577,2023-3-24T16:10:16Z
2023-03-24T14:10:34Z,42.805,6.029,13.3011,4.60077,2470.577,2023-3-24T16:13:19Z
2023-03-24T14:13:37Z,42.805,6.029,13.3018,4.60077,2470.567,2023-3-24T16:16:22Z
2023-03-24T14:16:40Z,42.805,6.029,13.3015,4.60077,2470.577,2023-3-24T16:19:25Z
2023-03-24T14:19:44Z,42.805,6.029,13.3013,4.60075,2470.6,2023-3-24T16:22:28Z
2023-03-24T14:22:47Z,42.805,6.029,13.3014,4.60075,2470.591,2023-3-24T16:25:31Z
2023-03-24T14:25:50Z,42.805,6.029,13.3014,4.60075,2470.6,2023-3-24T16:28:34Z
2023-03-24T14:28:53Z,42.805,6.029,13.3014,4.60077,2470.577,2023-3-24T16:31:37Z
2023-03-24T14:31:56Z,42.805,6.029,13.3014,4.60075,2470.553,2023-3-24T16:34:41Z
2023-03-24T14:34:59Z,42.805,6.029,13.3015,4.60075,2470.614,2023-3-24T16:37:44Z
2023-03-24T14:38:02Z,42.805,6.029,13.3018,4.60075,2470.577,2023-3-24T16:40:47Z
2023-03-24T14:41:05Z,42.805,6.029,13.3017,4.60076,2470.577,2023-3-24T16:43:50Z
2023-03-24T14:44:08Z,42.805,6.029,13.3015,4.60075,2470.567,2023-3-24T16:46:53Z
2023-03-24T14:47:11Z,42.805,6.029,13.3018,4.60076,2470.591,2023-3-24T16:49:56Z
2023-03-24T14:50:14Z,42.805,6.029,13.3021,4.60075,2470.553,2023-3-24T16:52:59Z
2023-03-24T14:53:17Z,42.805,6.029,13.3015,4.60076,2470.544,2023-3-24T16:56:02Z
2023-03-24T14:56:21Z,42.805,6.029,13.3016,4.60077,2470.577,2023-3-24T16:59:05Z
2023-03-24T14:59:24Z,42.805,6.029,13.3015,4.60075,2470.553,2023-3-24T17:02:08Z
2023-03-24T15:02:27Z,42.805,6.029,13.3017,4.60076,2470.567,2023-3-24T17:05:11Z
2023-03-24T15:05:30Z,42.805,6.029,13.3014,4.60076,2470.553,2023-3-24T17:08:14Z
2023-03-24T15:08:33Z,42.805,6.029,13.3015,4.60077,2470.52,2023-3-24T17:11:18Z
2023-03-24T15:11:36Z,42.805,6.029,13.3014,4.60075,2470.567,2023-3-24T17:14:21Z
2023-03-24T15:14:39Z,42.805,6.029,13.3016,4.60076,2470.577,2023-3-24T17:17:24Z